EW7269 Weather Reports


time (UTC)temp
C
wind
direction
speed
KPH
gust
KPH
rain 1hr
cm
rain 24hr
cm
rain mn
cm
humidity
%
barometer
mb
20260510120545 16 201 1.6 1.6 0.00 0.00 0.00 74 1013.8
20260510120048 16 207 1.6 1.6 0.00 0.00 0.00 76 1013.9
20260510115548 15 0.0 0.0 0.00 0.00 0.00 78 1013.8
20260510115128 15 0.0 0.0 0.00 0.00 0.00 80 1013.7
20260510114544 15 0.0 0.0 0.00 0.00 0.00 81 1013.7
20260510114108 15 0.0 0.0 0.00 0.00 0.00 83 1013.6
20260510113548 14 0.0 0.0 0.00 0.00 0.00 84 1013.5
20260510113048 13 0.0 0.0 0.00 0.00 0.00 85 1013.5
20260510112544 12 0.0 0.0 0.00 0.00 0.00 86 1013.5
20260510112048 12 0.0 0.0 0.00 0.00 0.00 86 1013.2
20260510111548 12 0.0 0.0 0.00 0.00 0.00 87 1013.2
20260510111048 11 0.0 0.0 0.00 0.00 0.00 87 1013.2
20260510110544 11 0.0 0.0 0.00 0.00 0.00 87 1013.0
20260510110048 11 0.0 0.0 0.00 0.00 0.00 88 1012.9
20260510105548 11 0.0 0.0 0.00 0.00 0.00 88 1012.9
20260510105049 11 0.0 0.0 0.00 0.00 0.00 88 1012.8
20260510104604 11 0.0 0.0 0.00 0.00 0.00 88 1012.7
20260510104048 11 0.0 0.0 0.00 0.00 0.00 88 1012.7
20260510103548 10 0.0 0.0 0.00 0.00 0.00 88 1012.5
20260510103049 10 0.0 0.0 0.00 0.00 0.00 88 1012.5
20260510102604 10 0.0 0.0 0.00 0.00 0.00 88 1012.5
20260510102041 10 0.0 0.0 0.00 0.00 0.00 87 1012.5
20260510101608 10 0.0 0.0 0.00 0.00 0.00 87 1012.5
20260510101048 11 0.0 0.0 0.00 0.00 0.00 87 1012.5
20260510100544 11 0.0 0.0 0.00 0.00 0.00 87 1012.2
20260510100108 11 0.0 0.0 0.00 0.00 0.00 87 1012.4
20260510095548 11 0.0 0.0 0.00 0.00 0.00 87 1012.4
20260510095048 11 0.0 0.0 0.00 0.00 0.00 87 1012.1
20260510094545 11 0.0 0.0 0.00 0.00 0.00 87 1012.2
20260510094048 11 0.0 0.0 0.00 0.00 0.00 87 1012.0
20260510093549 11 0.0 0.0 0.00 0.00 0.00 87 1012.0
20260510093048 11 0.0 0.0 0.00 0.00 0.00 87 1012.2
20260510092605 11 0.0 0.0 0.00 0.00 0.00 87 1012.1
20260510092048 11 0.0 0.0 0.00 0.00 0.00 87 1012.0
20260510091548 11 0.0 0.0 0.00 0.00 0.00 87 1011.9
20260510091048 11 0.0 0.0 0.00 0.00 0.00 87 1011.9
20260510090544 11 0.0 0.0 0.00 0.00 0.00 87 1011.8
20260510090228 11 0.0 0.0 0.00 0.00 0.00 87 1011.8
20260510085628 11 0.0 0.0 0.00 0.00 0.00 87 1011.9
20260510085048 11 0.0 0.0 0.00 0.00 0.00 87 1011.8
20260510084544 11 0.0 0.0 0.00 0.00 0.00 87 1012.0
20260510084108 11 0.0 0.0 0.00 0.00 0.00 87 1011.8
20260510083608 11 0.0 0.0 0.00 0.00 0.00 87 1011.8
20260510083108 11 0.0 0.0 0.00 0.00 0.00 87 1011.8
20260510082604 11 0.0 0.0 0.00 0.00 0.00 87 1011.8
20260510082048 11 0.0 0.0 0.00 0.00 0.00 86 1011.8
20260510081548 11 0.0 0.0 0.00 0.00 0.00 86 1011.8
20260510081048 11 0.0 0.0 0.00 0.00 0.00 86 1011.8
20260510080604 11 213 0.0 1.6 0.00 0.00 0.00 86 1011.7
20260510080048 11 0.0 0.0 0.00 0.00 0.00 86 1011.6
20260510075548 11 0.0 0.0 0.00 0.00 0.00 86 1011.6
20260510075048 11 0.0 0.0 0.00 0.00 0.00 85 1011.6
20260510074544 11 0.0 0.0 0.00 0.00 0.00 85 1011.4
20260510074048 11 0.0 0.0 0.00 0.00 0.00 85 1011.4
20260510062544 12 0.0 0.0 0.00 0.00 0.00 83 1010.9
20260510062049 12 0.0 0.0 0.00 0.00 0.00 82 1011.1
20260510061548 13 0.0 0.0 0.00 0.00 0.00 82 1011.2
20260510061048 13 0.0 0.0 0.00 0.00 0.00 81 1011.1
20260510060544 13 0.0 0.0 0.00 0.00 0.00 80 1010.9
20260510060048 13 0.0 0.0 0.00 0.00 0.00 80 1011.0
20260510055548 13 0.0 0.0 0.00 0.00 0.00 79 1011.0
20260510055048 13 0.0 0.0 0.00 0.00 0.00 79 1011.1
20260510054544 14 0.0 0.0 0.00 0.00 0.00 79 1011.1
20260510054048 14 0.0 0.0 0.00 0.00 0.00 78 1010.9
20260510053548 14 0.0 0.0 0.00 0.00 0.00 78 1011.1
20260510053048 14 0.0 0.0 0.00 0.00 0.00 77 1011.0
20260510052544 15 0.0 0.0 0.00 0.00 0.00 77 1011.1
20260510052048 15 0.0 0.0 0.00 0.00 0.00 77 1011.0
20260510051548 15 0.0 0.0 0.00 0.00 0.00 76 1011.0
20260510051040 15 0.0 0.0 0.00 0.00 0.00 75 1011.1
20260510050606 15 0.0 0.0 0.00 0.00 0.00 74 1011.1
20260510045548 16 244 1.6 8.0 0.00 0.00 0.00 72 1010.9
20260510045040 16 233 1.6 8.0 0.00 0.00 0.00 73 1010.9
20260510044545 16 216 1.6 4.8 0.00 0.00 0.00 73 1010.8
20260510044040 15 223 1.6 3.2 0.00 0.00 0.00 75 1010.7
20260510043548 15 213 1.6 4.8 0.00 0.00 0.00 78 1010.7
20260510043041 14 213 0.0 3.2 0.00 0.00 0.00 81 1010.8
20260510042544 14 0.0 0.0 0.00 0.00 0.00 81 1010.8
20260510042102 14 0.0 0.0 0.00 0.00 0.00 81 1010.6
20260510041548 14 198 0.0 1.6 0.00 0.00 0.00 80 1010.8
20260510041041 14 205 0.0 1.6 0.00 0.00 0.00 81 1010.9
20260510040545 13 206 0.0 1.6 0.00 0.00 0.00 81 1010.8
20260510040040 13 0.0 0.0 0.00 0.00 0.00 81 1011.0
20260510035610 13 0.0 0.0 0.00 0.00 0.00 81 1010.9
20260510035041 13 0.0 0.0 0.00 0.00 0.00 81 1011.1
20260510034544 13 0.0 0.0 0.00 0.00 0.00 81 1011.1
20260510034040 13 0.0 0.0 0.00 0.00 0.00 80 1010.9
20260510033609 13 203 0.0 1.6 0.00 0.00 0.00 80 1010.9
20260510033041 14 0.0 0.0 0.00 0.00 0.00 79 1010.7
20260510032545 14 0.0 0.0 0.00 0.00 0.00 79 1010.8
20260510032041 14 0.0 0.0 0.00 0.00 0.00 79 1010.5
20260510031549 15 0.0 0.0 0.00 0.00 0.00 79 1010.5
20260510031041 15 0.0 0.0 0.00 0.00 0.00 79 1010.4
20260510030544 15 0.0 0.0 0.00 0.00 0.00 79 1010.3
20260510030041 15 0.0 0.0 0.00 0.00 0.00 79 1010.5
20260510025548 15 0.0 0.0 0.00 0.00 0.00 78 1010.4
20260510025041 15 0.0 0.0 0.00 0.00 0.00 77 1010.3
20260510024544 15 0.0 0.0 0.00 0.00 0.00 76 1010.3
20260510024041 15 0.0 0.0 0.00 0.00 0.00 76 1010.4
20260510023549 15 0.0 0.0 0.00 0.00 0.00 76 1010.1
20260510023101 15 0.0 0.0 0.00 0.00 0.00 76 1010.1
20260510022545 15 0.0 0.0 0.00 0.00 0.00 75 1010.1
20260510022040 15 219 0.0 1.6 0.00 0.00 0.00 75 1010.1
20260510021549 16 0.0 0.0 0.00 0.00 0.00 75 1010.1
20260510021101 16 0.0 0.0 0.00 0.00 0.00 74 1010.1
20260510020545 16 215 0.0 1.6 0.00 0.00 0.00 74 1010.0
20260510015549 16 182 0.0 1.6 0.00 0.00 0.00 74 1010.0
20260510015041 16 165 0.0 1.6 0.00 0.00 0.00 74 1009.8
20260510014545 16 179 0.0 1.6 0.00 0.00 0.00 74 1009.8
20260510014040 16 181 0.0 1.6 0.00 0.00 0.00 73 1009.6
20260510013549 16 169 0.0 1.6 0.00 0.00 0.00 73 1009.6
20260510013041 16 182 0.0 1.6 0.00 0.00 0.00 73 1009.6
20260510012545 16 190 0.0 1.6 0.00 0.00 0.00 73 1009.4
20260510012041 16 0.0 0.0 0.00 0.00 0.00 72 1009.2
20260510011548 16 184 0.0 1.6 0.00 0.00 0.00 72 1009.2
20260510011041 17 199 0.0 1.6 0.00 0.00 0.00 72 1009.3
20260510010605 17 174 0.0 1.6 0.00 0.00 0.00 72 1009.2
20260510010121 17 187 0.0 1.6 0.00 0.00 0.00 73 1009.0
20260510005540 17 0.0 0.0 0.00 0.00 0.00 72 1009.1
20260510005041 17 0.0 0.0 0.00 0.00 0.00 72 1009.0
20260510004545 17 0.0 0.0 0.00 0.00 0.00 72 1009.0
20260510004041 17 0.0 0.0 0.00 0.00 0.00 73 1009.0
20260510003541 17 0.0 0.0 0.00 0.00 0.00 73 1008.8
20260510003042 18 0.0 0.0 0.00 0.00 0.00 73 1008.8
20260510002544 18 0.0 0.0 0.00 0.00 0.00 72 1008.8
20260510002041 18 179 0.0 1.6 0.00 0.00 0.00 72 1008.7
20260510001621 18 0.0 0.0 0.00 0.00 0.00 72 1008.8
20260510001041 18 0.0 0.0 0.00 0.00 0.00 71 1008.8
20260510000545 19 0.0 0.0 0.00 0.00 0.00 71 1008.8
20260510000041 19 0.0 0.0 0.00 0.00 0.00 70 1008.8
20260509235541 20 0.0 0.0 0.00 0.00 0.00 69 1008.5
20260509235041 20 181 0.0 1.6 0.00 0.00 0.00 68 1008.6
20260509234545 20 176 0.0 1.6 0.00 0.00 0.00 67 1008.5
20260509234101 20 176 0.0 1.6 0.00 0.00 0.00 66 1008.3
20260509233540 21 166 0.0 1.6 0.00 0.00 0.00 64 1008.4
20260509233040 21 183 0.0 1.6 0.00 0.00 0.00 64 1008.3
20260509232545 22 95 0.0 3.2 0.00 0.00 0.00 62 1008.3
20260509232041 22 204 0.0 1.6 0.00 0.00 0.00 60 1008.5
20260509231541 22 234 1.6 4.8 0.00 0.00 0.00 60 1008.3
20260509231041 22 204 1.6 3.2 0.00 0.00 0.00 59 1008.3
20260509230545 22 230 1.6 3.2 0.00 0.00 0.00 56 1008.4
20260509230041 22 231 1.6 3.2 0.00 0.00 0.00 57 1008.3
20260509225541 22 216 1.6 3.2 0.00 0.00 0.00 58 1008.4
20260509225041 22 212 0.0 1.6 0.00 0.00 0.00 59 1008.3
20260509224550 23 209 0.0 1.6 0.00 0.00 0.00 57 1008.3
20260509224041 23 215 1.6 3.2 0.00 0.00 0.00 57 1008.3
20260509223541 23 239 1.6 4.8 0.00 0.00 0.00 55 1008.3
20260509223101 23 223 1.6 3.2 0.00 0.00 0.00 55 1008.3
20260509222605 23 196 1.6 1.6 0.00 0.00 0.00 59 1008.4
20260509222041 22 203 0.0 1.6 0.00 0.00 0.00 59 1008.3
20260509221601 22 0.0 0.0 0.00 0.00 0.00 61 1008.4
20260509221100 22 0.0 0.0 0.00 0.00 0.00 65 1008.3
20260509220545 22 0.0 0.0 0.00 0.00 0.00 62 1008.5
20260509220041 22 160 0.0 1.6 0.00 0.00 0.00 61 1008.6
20260509215541 22 172 1.6 3.2 0.00 0.00 0.00 61 1008.6
20260509215041 22 0.0 0.0 0.00 0.00 0.00 62 1008.4
20260509214545 22 0.0 0.0 0.00 0.00 0.00 59 1008.5
20260509214041 23 200 0.0 1.6 0.00 0.00 0.00 59 1008.6
20260509213541 23 201 0.0 1.6 0.00 0.00 0.00 57 1008.3
20260509213041 23 0.0 0.0 0.00 0.00 0.00 57 1008.3
20260509212545 23 220 1.6 4.8 0.00 0.00 0.00 56 1008.3
20260509212101 23 241 1.6 3.2 0.00 0.00 0.00 53 1008.3
20260509211541 23 219 1.6 4.8 0.00 0.00 0.00 53 1008.3
20260509211041 23 248 1.6 8.0 0.00 0.00 0.00 52 1008.3
20260509210605 23 251 3.2 8.0 0.00 0.00 0.00 52 1008.3
20260509210041 23 225 1.6 3.2 0.00 0.00 0.00 52 1008.3
20260509205541 23 235 1.6 8.0 0.00 0.00 0.00 52 1008.2
20260509205041 23 230 1.6 3.2 0.00 0.00 0.00 51 1008.2
20260509204545 24 249 3.2 8.0 0.00 0.00 0.00 51 1008.1
20260509204041 23 239 1.6 4.8 0.00 0.00 0.00 52 1008.2
20260509203541 23 234 3.2 8.0 0.00 0.00 0.00 53 1008.1
20260509203041 23 269 1.6 4.8 0.00 0.00 0.00 54 1008.1
20260509202545 23 229 1.6 9.7 0.00 0.00 0.00 54 1008.1
20260509202101 23 228 3.2 8.0 0.00 0.00 0.00 53 1008.1
20260509201541 23 146 4.8 12.9 0.00 0.00 0.00 56 1008.2
20260509201041 23 252 1.6 4.8 0.00 0.00 0.00 56 1008.3
20260509200545 23 183 3.2 4.8 0.00 0.00 0.00 57 1008.3
20260509200041 23 219 1.6 3.2 0.00 0.00 0.00 56 1008.3
20260509195541 23 188 1.6 1.6 0.00 0.00 0.00 56 1008.5
20260509195041 24 140 3.2 8.0 0.00 0.00 0.00 56 1008.7
20260509194605 24 224 1.6 4.8 0.00 0.00 0.00 53 1008.6
20260509194041 23 229 0.0 1.6 0.00 0.00 0.00 55 1008.8
20260509193541 23 224 3.2 4.8 0.00 0.00 0.00 55 1008.7
20260509193101 23 201 0.0 1.6 0.00 0.00 0.00 57 1009.0
20260509192545 22 218 1.6 4.8 0.00 0.00 0.00 56 1009.0
20260509192041 22 199 1.6 8.0 0.00 0.00 0.00 57 1009.0
20260509191541 22 236 0.0 1.6 0.00 0.00 0.00 57 1009.1
20260509191041 22 268 4.8 11.3 0.00 0.00 0.00 57 1009.2
20260509190605 22 251 1.6 4.8 0.00 0.00 0.00 58 1009.1
20260509190041 22 235 3.2 8.0 0.00 0.00 0.00 60 1009.1
20260509185541 22 267 3.2 9.7 0.00 0.00 0.00 60 1009.2
20260509185041 22 179 3.2 8.0 0.00 0.00 0.00 61 1009.4
20260509184605 22 252 3.2 4.8 0.00 0.00 0.00 60 1009.4
20260509184041 23 253 3.2 9.7 0.00 0.00 0.00 59 1009.6
20260509183541 22 241 1.6 4.8 0.00 0.00 0.00 62 1009.7
20260509183041 21 242 1.6 4.8 0.00 0.00 0.00 62 1009.9
20260509182545 22 237 3.2 8.0 0.00 0.00 0.00 61 1009.9
20260509182041 22 232 3.2 8.0 0.00 0.00 0.00 60 1009.9
20260509181601 22 250 1.6 4.8 0.00 0.00 0.00 60 1009.9
20260509181041 22 227 1.6 8.0 0.00 0.00 0.00 62 1010.1
20260509180544 21 236 1.6 3.2 0.00 0.00 0.00 64 1010.1
20260509180041 21 230 3.2 9.7 0.00 0.00 0.00 64 1010.3
20260509175541 21 228 1.6 3.2 0.00 0.00 0.00 63 1010.2
20260509175102 21 234 3.2 8.0 0.00 0.00 0.00 62 1010.3
20260509174545 21 256 1.6 9.7 0.00 0.00 0.00 62 1010.3
20260509174042 21 235 3.2 9.7 0.00 0.00 0.00 61 1010.3
20260509173541 21 240 1.6 4.8 0.00 0.00 0.00 61 1010.4
20260509173041 21 261 1.6 3.2 0.00 0.00 0.00 62 1010.3
20260509172545 21 242 3.2 9.7 0.00 0.00 0.00 62 1010.5
20260509172041 20 256 3.2 9.7 0.00 0.00 0.00 63 1010.5
20260509171541 20 250 4.8 11.3 0.00 0.00 0.00 63 1010.6
20260509171041 20 252 3.2 9.7 0.00 0.00 0.00 63 1010.7
20260509170545 20 241 4.8 9.7 0.00 0.00 0.00 64 1010.7
20260509165541 20 240 3.2 4.8 0.00 0.00 0.00 64 1010.5
20260509165041 20 251 3.2 9.7 0.00 0.00 0.00 64 1010.7
20260509164545 20 261 3.2 11.3 0.00 0.00 0.00 64 1010.6
20260509164101 20 228 3.2 9.7 0.00 0.00 0.00 64 1010.7
20260509163601 20 216 3.2 8.0 0.00 0.00 0.00 63 1010.6
20260509163041 21 271 3.2 11.3 0.00 0.00 0.00 62 1010.6
20260509162546 20 251 4.8 11.3 0.00 0.00 0.00 63 1010.7
20260509162041 20 226 3.2 4.8 0.00 0.00 0.00 63 1010.7
20260509161541 20 225 3.2 9.7 0.00 0.00 0.00 63 1010.9
20260509161041 20 228 1.6 3.2 0.00 0.00 0.00 63 1010.9
20260509160545 20 234 3.2 9.7 0.00 0.00 0.00 62 1010.9
20260509160041 20 260 3.2 8.0 0.00 0.00 0.00 61 1010.9
20260509155541 20 242 4.8 9.7 0.00 0.00 0.00 61 1010.7
20260509155041 21 262 4.8 9.7 0.00 0.00 0.00 60 1010.8
20260509154545 21 265 3.2 9.7 0.00 0.00 0.00 60 1010.8
20260509154122 21 270 4.8 14.5 0.00 0.00 0.00 60 1010.9
20260509153541 20 235 4.8 9.7 0.00 0.00 0.00 60 1010.9
20260509153101 21 268 4.8 9.7 0.00 0.00 0.00 59 1011.1
20260509152545 21 248 4.8 12.9 0.00 0.00 0.00 60 1011.2
20260509152103 21 241 3.2 9.7 0.00 0.00 0.00 59 1011.1
20260509151541 21 227 3.2 11.3 0.00 0.00 0.00 61 1011.2
20260509151041 20 219 4.8 11.3 0.00 0.00 0.00 61 1011.1
20260509150546 20 203 3.2 11.3 0.00 0.00 0.00 62 1011.0
20260509150041 20 210 3.2 11.3 0.00 0.00 0.00 62 1011.2
20260509145541 19 221 1.6 3.2 0.00 0.00 0.00 64 1011.2
20260509145042 18 255 3.2 4.8 0.00 0.00 0.00 64 1011.4
20260509144606 18 244 3.2 8.0 0.00 0.00 0.00 65 1011.3
20260509144041 18 213 3.2 9.7 0.00 0.00 0.00 65 1011.4
20260509143541 18 235 3.2 8.0 0.00 0.00 0.00 65 1011.6
20260509143041 18 292 4.8 12.9 0.00 0.00 0.00 65 1011.6
20260509142545 18 183 1.6 4.8 0.00 0.00 0.00 66 1011.7
20260509142041 17 261 1.6 4.8 0.00 0.00 0.00 67 1011.8
20260509141541 17 226 3.2 9.7 0.00 0.00 0.00 67 1011.7
20260509141041 17 246 3.2 9.7 0.00 0.00 0.00 67 1011.6
20260509140545 17 223 3.2 8.0 0.00 0.00 0.00 68 1011.7
20260509140041 17 233 1.6 9.7 0.00 0.00 0.00 68 1011.9
20260509135541 16 203 3.2 8.0 0.00 0.00 0.00 69 1011.9
20260509135101 16 301 3.2 11.3 0.00 0.00 0.00 68 1012.1
20260509134545 16 223 3.2 8.0 0.00 0.00 0.00 69 1011.9
20260509134101 16 216 3.2 4.8 0.00 0.00 0.00 69 1012.0
20260509133541 16 255 3.2 8.0 0.00 0.00 0.00 70 1012.0
20260509133121 16 235 1.6 4.8 0.00 0.00 0.00 70 1012.0
20260509132545 16 241 1.6 8.0 0.00 0.00 0.00 70 1012.1
20260509132042 16 237 1.6 4.8 0.00 0.00 0.00 70 1012.0
20260509131541 15 212 3.2 9.7 0.00 0.00 0.00 70 1012.0
20260509131041 15 230 1.6 4.8 0.00 0.00 0.00 70 1012.2
20260509130546 15 230 1.6 8.0 0.00 0.00 0.00 71 1012.2
20260509125541 15 252 1.6 4.8 0.00 0.00 0.00 71 1012.1
20260509125041 15 202 1.6 8.0 0.00 0.00 0.00 71 1012.2
20260509124546 15 236 3.2 9.7 0.00 0.00 0.00 71 1012.1
20260509124041 15 232 1.6 3.2 0.00 0.00 0.00 71 1012.1
20260509123541 14 236 1.6 4.8 0.00 0.00 0.00 71 1012.2
20260509123101 14 237 1.6 3.2 0.00 0.00 0.00 71 1012.2
20260509122547 14 210 1.6 4.8 0.00 0.00 0.00 72 1012.2
20260509122042 14 252 1.6 9.7 0.00 0.00 0.00 72 1012.0
20260509121541 14 245 1.6 8.0 0.00 0.00 0.00 71 1012.1
20260509121041 14 219 1.6 3.2 0.00 0.00 0.00 71 1012.1